CZ-6A DEB, 61130

Orbit data source: Space-Track

CZ-6A DEB, 61130 is space debris in LEO originally from a launch on Tue, 06 Aug 2024 UTC launched from the Taiyaun Space Center, China (TSC). Debris objects in space refer to the collection of defunct objects orbiting the Earth. Examples of debris include non-operational satellites, rocket bodies, and fragments generated from explosions, collisions, or faulty payload assembly.

Loading next visibility...
Identifier
61130, 2024-140PY
Orbit
LEO
Country
Flag of CNCN / PRC
Related business
Manufacturer
SAST
Mission
Spacecraft
Bus & Motor
Unknown
Mass
Unknown
Launch date (UTC)
2024-08-06 (2 years ago)
Launch vehicle
Unknown
Launch site
Taiyaun Space Center, China (TSC)
Object type
Payload
Rocket body
Debris
Shape & HBR
Unknown shape, 0.1 m
Radar Cross Section
Medium (>0.1 m² and <1 m²)

Expand to show TLE details & history
Last TLE update: 17 hours ago

TLE from 17 hours ago
0 CZ-6A DEB
1 61130U 24140PY  26171.21092843  .00002170  00000-0  79986-3 0  9990
2 61130  88.6219 242.6244 0069200  75.1903 285.6945 14.30885327 95298
Epoch: 2026-06-20T05:03Z
TLE epoch observation values (Epoch: 2026-06-20T05:03:44.216Z)
Latitude
-0.0001°
Longitude
-101.73865°
Altitude
778.741 km
Speed
7.471 km/s
True Right ascension
16h 10m 29s
True Declination
0° 00' 00"
Sunlit
Object was in full shadow at epoch
Visualization orbit readout
Latitude
Unknown
Longitude
Unknown
Altitude
Unknown
Speed
Unknown
Apparent Right ascension
Unknown
Apparent Declination
Unknown
Sunlit
N/A
Visualization observer readout
Local Sidereal Time
08:42:27
Azimuth
Unknown
Elevation
Unknown
Doppler factor
Unknown
Orbital elements
Apogee altitude
835.285 km
Perigee altitude
736.137 km
Semi-major axis
7,163.848 km
Eccentricity
0.00692
Inclination
88.6219°
RAAN
242.6244°
Arg. of periapsis
75.1903°
True anomaly
284.92932°
Mean anomaly
285.6945°
Eccentric anomaly
285.31209°
Mean motion
3.57951 °/min
Orbital period
100.57 mins
BSTAR
0.00079986
Loading maneuver chart data...
Computing Atmospheric mass density...
Loading historical data...
Loading historical data...
Loading historical data...
Loading historical data...
Loading historical data...
Loading historical data...
Loading historical data...

Documentation

Showing up to 5 results
|